Content
SEND FEEDBACK

Daily
Averages
Monthly
Summary
United States of America

CARTERSVILLE, VIRGINIA


Home > North America > United States > Virginia
Elevation: 223 feet     Latitude: 37 42N     Longitude: 078 18W

WEATHER
 
SELECT A DAY
Number of Records: 76,936;   Date Range: 2/1/11 - 7/27/14
 
SHARE

PRINT THIS DATA

[ ← Previous Day ]
WEATHER ALMANAC - JANUARY 31, 2013
[ Next Day → ]
[ °C ]   °F
Weather ElementAverageHighLow
Temperature45.2 °F59 °F (12:35 am)30.2 °F (10:55 pm)
Dewpoint21.7 °F55.4 °F (12:35 am)6.8 °F (3:15 pm)
Humidity43 %94 % (1:15 am)20 % (3:15 pm)
Barometer29.69 in29.94 in (10:35 pm)29.33 in (1:55 am)
Wind Speed10.3 mph19.6 mph (1:15 pm)
Wind Gust33.4 mph (2:15 pm)
Weather ElementAverage
Visibility10 mi
Wind DirectionSW (223.6 °)

Weather ElementTotal
Precipitation0.40 in
Heating Degree Days20.4 (Base 65)
Averaged from 66 records on January 31, 2013
WEATHER CONDITIONS BREAKOUT
WIND DIRECTION BREAKOUT
WEATHER BY HOUR - JANUARY 31, 2013
[ °C ]   °F
Local TimeTemperatureDewpointHumidityBarometerVisibilityWind DirectionWind SpeedGust SpeedPrecipitationEventsConditions
12:35 AM59.0 °F55.4 °F88 %29.35 in7.0 miWSW (240°)13.8 mph24.2 mph0.06 inRainRain
12:55 AM57.2 °F53.6 °F88 %29.34 in10.0 miWSW (240°)16.1 mph19.6 mph0.03 inRainRain
1:15 AM55.4 °F53.6 °F94 %29.34 in10.0 miWSW (240°)12.7 mph17.3 mph0.11 inRainRain
1:35 AM55.4 °F53.6 °F94 %29.34 in10.0 miSW (230°)10.4 mph17.3 mph0.14 inRainRain
1:55 AM55.4 °F51.8 °F88 %29.33 in10.0 miSW (220°)10.4 mph16.1 mph0.02 inRainRain
2:15 AM55.4 °F51.8 °F88 %29.33 in10.0 miSW (230°)10.4 mph17.3 mph0.02 inOvercast
2:35 AM55.4 °F51.8 °F88 %29.34 in10.0 miSW (230°)10.4 mph18.4 mph0.02 inLight Drizzle
2:55 AM55.4 °F51.8 °F88 %29.34 in10.0 miSW (220°)10.4 mph18.4 mphMostly Cloudy
3:15 AM55.4 °F51.8 °F88 %29.35 in10.0 miWSW (240°)11.5 mph19.6 mphOvercast
3:35 AM55.4 °F46.4 °F72 %29.36 in10.0 miWSW (240°)13.8 mph21.9 mph
3:55 AM53.6 °F39.2 °F58 %29.37 in10.0 miWSW (250°)12.7 mph21.9 mphOvercast
4:15 AM53.6 °F37.4 °F54 %29.39 in10.0 miWSW (240°)13.8 mph23.0 mphOvercast
4:35 AM53.6 °F37.4 °F54 %29.41 in10.0 miWSW (240°)12.7 mph21.9 mphOvercast
4:55 AM51.8 °F35.6 °F54 %29.44 in10.0 miWSW (240°)5.8 mph19.6 mphOvercast
5:15 AM50.0 °F30.2 °F47 %29.47 in10.0 miWest (270°)11.5 mph26.5 mphOvercast
5:35 AM48.2 °F30.2 °F50 %29.49 in10.0 miWest (260°)9.2 mphMostly Cloudy
5:55 AM48.2 °F30.2 °F50 %29.51 in10.0 miWest (260°)8.1 mph17.3 mphMostly Cloudy
6:15 AM48.2 °F28.4 °F46 %29.53 in10.0 miWSW (240°)6.9 mphMostly Cloudy
6:35 AM46.4 °F26.6 °F46 %29.55 in10.0 miWSW (240°)12.7 mph24.2 mphScattered Clouds
7:15 AM44.6 °F21.2 °F39 %29.59 in10.0 miWSW (250°)13.8 mph19.6 mphClear
7:35 AM44.6 °F21.2 °F39 %29.62 in10.0 miWSW (240°)8.1 mph19.6 mphScattered Clouds
7:55 AM44.6 °F19.4 °F37 %29.63 in10.0 miWSW (250°)13.8 mph25.3 mphScattered Clouds
8:15 AM44.6 °F19.4 °F37 %29.65 in10.0 miWSW (240°)11.5 mph20.7 mphClear
8:35 AM44.6 °F17.6 °F34 %29.67 in10.0 miWSW (250°)16.1 mph21.9 mphClear
8:55 AM44.6 °F17.6 °F34 %29.68 in10.0 miWSW (250°)10.4 mph19.6 mphClear
9:15 AM44.6 °F17.6 °F34 %29.69 in10.0 miWest (280°)9.2 mph17.3 mphClear
9:35 AM44.6 °F17.6 °F34 %29.70 in10.0 miWSW (240°)13.8 mph21.9 mphClear
9:55 AM46.4 °F17.6 °F32 %29.73 in10.0 miWest (260°)12.7 mph23.0 mphClear
10:15 AM44.6 °F15.8 °F31 %29.74 in10.0 miWest (260°)9.2 mph25.3 mphClear
10:35 AM46.4 °F15.8 °F29 %29.75 in10.0 miWSW (240°)18.4 mph25.3 mphClear
10:55 AM44.6 °F14.0 °F29 %29.76 in10.0 miWest (260°)13.8 mph27.6 mphClear
11:15 AM46.4 °F15.8 °F29 %29.75 in10.0 miWSW (240°)18.4 mph27.6 mphScattered Clouds
11:35 AM46.4 °F12.2 °F25 %29.76 in10.0 miWSW (250°)13.8 mph21.9 mphScattered Clouds
11:55 AM46.4 °F10.4 °F23 %29.76 in10.0 miWSW (250°)18.4 mph27.6 mphClear
12:15 PM46.4 °F15.8 °F29 %29.77 in10.0 miWSW (250°)11.5 mph26.5 mphScattered Clouds
12:35 PM44.6 °F12.2 °F27 %29.77 in10.0 miWest (260°)12.7 mph21.9 mphMostly Cloudy
12:55 PM44.6 °F10.4 °F25 %29.75 in10.0 miWSW (250°)9.2 mph23.0 mphScattered Clouds
1:15 PM46.4 °F14.0 °F27 %29.75 in10.0 miWSW (250°)19.6 mph26.5 mphClear
1:35 PM46.4 °F15.8 °F29 %29.76 in10.0 miWSW (240°)15.0 mph21.9 mphMostly Cloudy
1:55 PM46.4 °F12.2 °F25 %29.76 in10.0 miWest (260°)13.8 mph25.3 mphMostly Cloudy
2:15 PM46.4 °F10.4 °F23 %29.77 in10.0 miWSW (250°)17.3 mph33.4 mphMostly Cloudy
2:35 PM46.4 °F10.4 °F23 %29.78 in10.0 miWSW (250°)15.0 mph26.5 mphMostly Cloudy
2:55 PM46.4 °F8.6 °F22 %29.79 in10.0 miWSW (250°)16.1 mph27.6 mphMostly Cloudy
3:15 PM46.4 °F6.8 °F20 %29.80 in10.0 miWest (260°)9.2 mph24.2 mphMostly Cloudy
3:35 PM44.6 °F8.6 °F23 %29.82 in10.0 miWSW (250°)18.4 mph27.6 mphMostly Cloudy
4:15 PM44.6 °F8.6 °F23 %29.85 in10.0 miWest (270°)10.4 mph24.2 mphMostly Cloudy
4:35 PM42.8 °F8.6 °F25 %29.86 in10.0 miWest (260°)10.4 mph16.1 mphOvercast
4:55 PM42.8 °F8.6 °F25 %29.86 in10.0 miWest (260°)8.1 mph21.9 mphOvercast
5:15 PM41.0 °F6.8 °F24 %29.88 in10.0 miWSW (250°)12.7 mph24.2 mphScattered Clouds
5:35 PM39.2 °F6.8 °F26 %29.89 in10.0 miWest (260°)9.2 mph17.3 mphScattered Clouds
5:55 PM39.2 °F8.6 °F28 %29.89 in10.0 miWest (260°)8.1 mphMostly Cloudy
6:15 PM39.2 °F8.6 °F28 %29.89 in10.0 miWSW (240°)8.1 mphScattered Clouds
6:35 PM39.2 °F8.6 °F28 %29.90 in10.0 miWest (260°)9.2 mphScattered Clouds
6:55 PM39.2 °F10.4 °F31 %29.90 in10.0 miWSW (240°)6.9 mphScattered Clouds
7:15 PM39.2 °F10.4 °F31 %29.91 in10.0 miWSW (240°)4.6 mphClear
7:35 PM37.4 °F12.2 °F36 %29.91 in10.0 miSW (230°)4.6 mphClear
8:15 PM35.6 °F12.2 °F38 %29.92 in10.0 miSW (220°)3.5 mphClear
8:35 PM35.6 °F14.0 °F41 %29.92 in10.0 miSW (230°)4.6 mphClear
9:15 PM35.6 °F14.0 °F41 %29.93 in10.0 miSW (220°)3.5 mphClear
9:35 PM35.6 °F12.2 °F38 %29.93 in10.0 miCalmClear
9:55 PM35.6 °F12.2 °F38 %29.93 in10.0 miCalmClear
10:15 PM33.8 °F14.0 °F44 %29.93 in10.0 miSW (220°)3.5 mphClear
10:35 PM33.8 °F12.2 °F41 %29.94 in10.0 miCalmClear
10:55 PM30.2 °F17.6 °F60 %29.94 in10.0 miCalmClear
11:15 PM32.0 °F15.8 °F51 %29.93 in10.0 miCalmClear
11:35 PM33.8 °F15.8 °F48 %29.93 in10.0 miCalmClear
Hourly data recorded from KFVX, located miles away from Cartersville, Virginia







STORIES FROM OUR PARTNERS